TimePST,TemperatureF,Dew PointF,Humidity,Sea Level PressureIn,VisibilityMPH,Wind Direction,Wind SpeedMPH,Gust SpeedMPH,PrecipitationIn,Events,Conditions,WindDirDegrees,DateUTC
12:00 AM,50.0,46.4,87,29.44,9.0,South,16.1,33.4,N/A,Rain,Light Rain,170,2013-12-17 08:00:00
12:29 AM,50.0,46.4,87,29.45,5.0,South,16.1,31.1,N/A,Rain,Light Rain,180,2013-12-17 08:29:00
12:39 AM,48.2,46.4,93,29.46,3.0,South,15.0,35.7,N/A,Rain,Light Rain,190,2013-12-17 08:39:00
12:53 AM,48.2,46.4,93,29.47,3.0,South,17.3,38.0,N/A,Rain,Light Rain,180,2013-12-17 08:53:00
12:55 AM,48.2,46.4,93,29.47,3.0,South,18.4,38.0,N/A,Rain,Light Rain,180,2013-12-17 08:55:00
12:56 AM,48.2,46.4,93,29.47,3.0,South,15.0,38.0,N/A,Rain,Light Rain,180,2013-12-17 08:56:00
12:58 AM,48.2,46.4,93,29.47,3.0,South,16.1,38.0,N/A,Rain,Light Rain,190,2013-12-17 08:58:00
1:00 AM,48.2,46.4,93,29.48,3.0,SSW,12.7,38.0,N/A,Rain,Light Rain,200,2013-12-17 09:00:00
1:03 AM,48.2,46.4,93,29.49,3.0,SSW,24.2,33.4,N/A,Rain,Light Rain,210,2013-12-17 09:03:00
1:11 AM,50.0,46.4,87,29.49,6.0,SSW,19.6,33.4,N/A,Rain,Light Rain,210,2013-12-17 09:11:00
1:12 AM,50.0,46.4,87,29.49,7.0,SSW,20.7,35.7,N/A,Rain,Light Rain,210,2013-12-17 09:12:00
1:21 AM,48.2,46.4,93,29.51,5.0,SSW,15.0,35.7,N/A,Rain,Light Rain,210,2013-12-17 09:21:00
1:25 AM,48.2,46.4,93,29.52,2.5,SSW,19.6,33.4,N/A,Rain,Light Rain,210,2013-12-17 09:25:00
1:37 AM,46.4,42.8,87,29.54,3.0,WSW,17.3,40.3,N/A,Rain,Light Rain,250,2013-12-17 09:37:00
1:41 AM,44.6,42.8,93,29.55,6.0,WSW,16.1,34.5,N/A,Rain,Light Rain,250,2013-12-17 09:41:00
1:45 AM,44.6,42.8,93,29.57,8.0,WSW,15.0,33.4,N/A,,Overcast,240,2013-12-17 09:45:00
2:00 AM,44.6,42.8,93,29.59,9.0,WSW,16.1,28.8,N/A,,Overcast,240,2013-12-17 10:00:00
3:00 AM,42.8,39.2,87,29.67,9.0,WSW,17.3,29.9,N/A,,Overcast,250,2013-12-17 11:00:00
4:00 AM,43,39,81,29.72,7,WSW,24.2,,,,Clear,250,2013-12-17 12:00:00
4:00 AM,42.8,39.2,87,29.71,7.0,West,23.0,33.4,N/A,,Overcast,260,2013-12-17 12:00:00
4:27 AM,42.8,39.2,87,29.74,9.0,West,19.6,29.9,N/A,,Overcast,260,2013-12-17 12:27:00
4:36 AM,42.8,39.2,87,29.75,9.0,West,13.8,31.1,N/A,,Overcast,260,2013-12-17 12:36:00
4:40 AM,42.8,37.4,81,29.75,9.0,WSW,15.0,26.5,N/A,,Overcast,250,2013-12-17 12:40:00
4:41 AM,42.8,37.4,81,29.75,9.0,WSW,17.3,26.5,N/A,,Overcast,250,2013-12-17 12:41:00
4:53 AM,42.8,39.2,87,29.75,9.0,West,15.0,27.6,N/A,Rain,Light Rain,260,2013-12-17 12:53:00
5:00 AM,42.8,37.4,81,29.76,9.0,WSW,19.6,26.5,N/A,Rain,Light Rain,250,2013-12-17 13:00:00
5:18 AM,42.8,37.4,81,29.78,9.0,WSW,13.8,23.0,N/A,,Overcast,250,2013-12-17 13:18:00
5:21 AM,42.8,37.4,81,29.78,9.0,West,9.2,23.0,N/A,,Overcast,260,2013-12-17 13:21:00
5:25 AM,42.8,37.4,81,29.78,9.0,West,15.0,23.0,N/A,,Overcast,260,2013-12-17 13:25:00
5:28 AM,42.8,37.4,81,29.78,9.0,West,9.2,23.0,N/A,,Overcast,260,2013-12-17 13:28:00
6:00 AM,42.8,37.4,81,29.79,9.0,West,12.7,23.0,N/A,,Overcast,270,2013-12-17 14:00:00
6:09 AM,42.8,37.4,81,29.80,9.0,West,12.7,20.7,N/A,,Overcast,260,2013-12-17 14:09:00
6:13 AM,42.8,37.4,81,29.80,9.0,WSW,16.1,23.0,N/A,,Overcast,250,2013-12-17 14:13:00
6:15 AM,42.8,37.4,81,29.80,9.0,West,17.3,24.2,N/A,,Overcast,260,2013-12-17 14:15:00
6:19 AM,42.8,37.4,81,29.80,9.0,WSW,13.8,24.2,N/A,,Overcast,250,2013-12-17 14:19:00
6:20 AM,42.8,37.4,81,29.80,9.0,West,13.8,24.2,N/A,,Overcast,260,2013-12-17 14:20:00
6:21 AM,42.8,37.4,81,29.80,9.0,WSW,15.0,24.2,N/A,,Overcast,250,2013-12-17 14:21:00
6:22 AM,42.8,37.4,81,29.80,9.0,WSW,13.8,24.2,N/A,,Overcast,250,2013-12-17 14:22:00
6:23 AM,42.8,37.4,81,29.80,9.0,WSW,13.8,24.2,N/A,,Overcast,250,2013-12-17 14:23:00
6:27 AM,42.8,39.2,87,29.81,9.0,WSW,16.1,23.0,N/A,,Overcast,250,2013-12-17 14:27:00
6:28 AM,42.8,39.2,87,29.81,9.0,West,13.8,23.0,N/A,,Overcast,260,2013-12-17 14:28:00
6:29 AM,42.8,39.2,87,29.81,9.0,WSW,13.8,23.0,N/A,,Overcast,250,2013-12-17 14:29:00
6:37 AM,42.8,39.2,87,29.81,8.0,WSW,16.1,23.0,N/A,Rain,Light Rain,250,2013-12-17 14:37:00
6:41 AM,41.0,39.2,93,29.81,5.0,West,16.1,23.0,N/A,Rain,Light Rain,260,2013-12-17 14:41:00
6:51 AM,41.0,37.4,87,29.81,5.0,West,16.1,23.0,N/A,Rain,Light Rain,260,2013-12-17 14:51:00
6:53 AM,41.0,37.4,87,29.82,7.0,West,15.0,23.0,N/A,Rain,Light Rain,260,2013-12-17 14:53:00
7:00 AM,41.0,39.2,93,29.82,9.0,WSW,12.7,24.2,N/A,Rain,Light Rain,250,2013-12-17 15:00:00
7:04 AM,41.0,39.2,93,29.82,9.0,WSW,13.8,23.0,N/A,Rain,Light Rain,250,2013-12-17 15:04:00
7:05 AM,41.0,39.2,93,29.82,9.0,WSW,13.8,23.0,N/A,,Overcast,250,2013-12-17 15:05:00
7:12 AM,41.0,37.4,87,29.83,6.0,West,16.1,28.8,N/A,Rain,Light Rain,260,2013-12-17 15:12:00
7:13 AM,41.0,37.4,87,29.83,5.0,West,12.7,28.8,N/A,Rain,Light Rain,260,2013-12-17 15:13:00
7:15 AM,41.0,39.2,93,29.83,5.0,West,13.8,28.8,N/A,Rain,Light Rain,260,2013-12-17 15:15:00
7:16 AM,41.0,39.2,93,29.83,5.0,West,11.5,28.8,N/A,Rain,Light Rain,260,2013-12-17 15:16:00
7:20 AM,41.0,39.2,93,29.83,6.0,West,15.0,23.0,N/A,Rain,Light Rain,260,2013-12-17 15:20:00
7:30 AM,41.0,39.2,93,29.83,9.0,West,15.0,21.9,N/A,,Overcast,260,2013-12-17 15:30:00
7:32 AM,41.0,39.2,93,29.83,9.0,SW,10.4,20.7,N/A,,Overcast,230,2013-12-17 15:32:00
7:34 AM,41.0,39.2,93,29.83,9.0,WSW,13.8,26.5,N/A,Rain,Light Rain,240,2013-12-17 15:34:00
7:38 AM,41.0,39.2,93,29.83,4.0,WSW,17.3,28.8,N/A,Rain,Light Rain,240,2013-12-17 15:38:00
7:50 AM,39.2,37.4,93,29.84,6.0,WSW,24.2,32.2,N/A,Rain,Light Rain,250,2013-12-17 15:50:00
7:51 AM,39.2,35.6,87,29.84,6.0,WSW,23.0,32.2,N/A,Rain,Light Rain,250,2013-12-17 15:51:00
7:52 AM,39.2,37.4,93,29.84,5.0,WSW,20.7,32.2,N/A,Rain,Light Rain,250,2013-12-17 15:52:00
7:57 AM,39.2,37.4,93,29.85,6.0,West,8.1,32.2,N/A,Rain,Light Rain,260,2013-12-17 15:57:00
8:00 AM,39.2,37.4,93,29.85,7.0,West,12.7,31.1,N/A,Rain,Light Rain,260,2013-12-17 16:00:00
8:07 AM,41.0,37.4,87,29.85,9.0,West,18.4,34.5,N/A,,Overcast,260,2013-12-17 16:07:00
8:09 AM,39.2,37.4,93,29.86,5.0,WSW,16.1,34.5,N/A,,Overcast,250,2013-12-17 16:09:00
8:10 AM,39.2,37.4,93,29.86,4.0,WSW,13.8,34.5,N/A,Rain,Light Rain,250,2013-12-17 16:10:00
8:20 AM,39.2,37.4,93,29.86,6.0,West,10.4,25.3,N/A,Rain,Light Rain,260,2013-12-17 16:20:00
8:34 AM,39.2,37.4,93,29.87,9.0,WSW,15.0,20.7,N/A,,Overcast,250,2013-12-17 16:34:00
8:35 AM,39.2,37.4,93,29.87,9.0,West,12.7,20.7,N/A,,Overcast,260,2013-12-17 16:35:00
8:45 AM,39.2,37.4,93,29.87,9.0,West,11.5,20.7,N/A,Rain,Light Rain,270,2013-12-17 16:45:00
8:46 AM,39.2,37.4,93,29.87,9.0,West,10.4,20.7,N/A,Rain,Light Rain,260,2013-12-17 16:46:00
8:47 AM,39.2,37.4,93,29.87,9.0,West,11.5,20.7,N/A,Rain,Light Rain,270,2013-12-17 16:47:00
8:48 AM,39.2,37.4,93,29.87,9.0,West,12.7,20.7,N/A,Rain,Light Rain,270,2013-12-17 16:48:00
9:00 AM,39.2,37.4,93,29.88,9.0,West,11.5,20.7,N/A,Rain,Light Rain,270,2013-12-17 17:00:00
9:02 AM,39.2,37.4,93,29.88,9.0,West,12.7,20.7,N/A,,Overcast,260,2013-12-17 17:02:00
9:03 AM,39.2,37.4,93,29.88,9.0,WSW,15.0,20.7,N/A,Rain,Light Rain,250,2013-12-17 17:03:00
9:14 AM,39.2,37.4,93,29.88,9.0,West,12.7,20.7,N/A,,Overcast,260,2013-12-17 17:14:00
9:16 AM,39.2,37.4,93,29.88,9.0,WSW,11.5,19.6,N/A,Rain,Light Rain,250,2013-12-17 17:16:00
9:37 AM,39.2,35.6,87,29.90,7.0,WSW,16.1,27.6,N/A,Rain,Light Rain,250,2013-12-17 17:37:00
9:41 AM,39.2,35.6,87,29.90,5.0,West,9.2,23.0,N/A,Rain,Light Rain,260,2013-12-17 17:41:00
9:44 AM,39.2,35.6,87,29.90,6.0,SW,8.1,23.0,N/A,Rain,Light Rain,220,2013-12-17 17:44:00
10:00 AM,40,36,82,29.91,10,West,11.5,,,Rain,Light Rain,280,2013-12-17 18:00:00
10:00 AM,39.2,35.6,87,29.91,9.0,West,11.5,20.7,N/A,Rain,Light Rain,280,2013-12-17 18:00:00
10:09 AM,39.2,35.6,87,29.91,9.0,West,12.7,21.9,N/A,,Overcast,270,2013-12-17 18:09:00
10:10 AM,39.2,35.6,87,29.91,9.0,West,11.5,21.9,N/A,,Overcast,270,2013-12-17 18:10:00
10:28 AM,39.2,35.6,87,29.91,9.0,WSW,19.6,29.9,N/A,Rain,Light Rain,250,2013-12-17 18:28:00
10:38 AM,39.2,35.6,87,29.92,9.0,WSW,19.6,34.5,N/A,,Overcast,250,2013-12-17 18:38:00
10:41 AM,39.2,33.8,81,29.92,9.0,WSW,20.7,34.5,N/A,Rain,Light Rain,250,2013-12-17 18:41:00
10:51 AM,39.2,33.8,81,29.93,9.0,West,13.8,27.6,N/A,,Overcast,260,2013-12-17 18:51:00
10:56 AM,39.2,35.6,87,29.93,9.0,West,25.3,31.1,N/A,,Overcast,260,2013-12-17 18:56:00
10:57 AM,39.2,35.6,87,29.93,9.0,West,24.2,31.1,N/A,Rain,Light Rain,260,2013-12-17 18:57:00
11:00 AM,39.2,35.6,87,29.93,9.0,West,20.7,31.1,N/A,Rain,Light Rain,260,2013-12-17 19:00:00
11:09 AM,37.4,35.6,93,29.94,7.0,West,15.0,34.5,N/A,Rain,Light Rain,260,2013-12-17 19:09:00
11:29 AM,37.4,35.6,93,29.94,7.0,West,12.7,27.6,N/A,Rain,Light Rain,270,2013-12-17 19:29:00
11:34 AM,37.4,35.6,93,29.95,9.0,West,11.5,21.9,N/A,Rain,Light Rain,270,2013-12-17 19:34:00
11:39 AM,37.4,33.8,87,29.95,9.0,West,10.4,18.4,N/A,Rain,Light Rain,280,2013-12-17 19:39:00
11:44 AM,37.4,35.6,93,29.95,9.0,West,6.9,17.3,N/A,,Overcast,260,2013-12-17 19:44:00
12:00 PM,39.2,33.8,81,29.94,9.0,West,15.0,23.0,N/A,,Overcast,260,2013-12-17 20:00:00
12:10 PM,39.2,35.6,87,29.94,9.0,WNW,16.1,26.5,N/A,Rain,Light Rain,290,2013-12-17 20:10:00
12:21 PM,37.4,33.8,87,29.95,9.0,WNW,16.1,26.5,N/A,Rain,Light Rain,290,2013-12-17 20:21:00
12:39 PM,37.4,35.6,93,29.95,9.0,West,8.1,20.7,N/A,Rain,Light Rain,270,2013-12-17 20:39:00
12:48 PM,37.4,33.8,87,29.95,9.0,West,11.5,19.6,N/A,,Overcast,260,2013-12-17 20:48:00
1:00 PM,37.4,33.8,87,29.95,9.0,West,12.7,20.7,N/A,,Overcast,270,2013-12-17 21:00:00
1:18 PM,37.4,33.8,87,29.96,9.0,West,15.0,20.7,N/A,Rain,Light Rain,260,2013-12-17 21:18:00
1:35 PM,39.2,33.8,81,29.95,9.0,West,12.7,19.6,N/A,,Overcast,280,2013-12-17 21:35:00
2:00 PM,39.2,32.0,75,29.96,9.0,West,12.7,24.2,N/A,,Overcast,280,2013-12-17 22:00:00
2:05 PM,39.2,33.8,81,29.96,9.0,West,16.1,26.5,N/A,Rain,Light Rain,280,2013-12-17 22:05:00
2:21 PM,37.4,32.0,81,29.96,9.0,West,11.5,19.6,N/A,,Overcast,260,2013-12-17 22:21:00
3:00 PM,37.4,32.0,81,29.97,9.0,NW,10.4,17.3,N/A,,Overcast,310,2013-12-17 23:00:00
3:08 PM,37.4,32.0,81,29.97,9.0,NW,9.2,18.4,N/A,,Overcast,310,2013-12-17 23:08:00
3:13 PM,37.4,32.0,81,29.98,9.0,WNW,11.5,18.4,N/A,Rain,Light Rain,300,2013-12-17 23:13:00
3:15 PM,35.6,32.0,87,29.98,6.0,WNW,12.7,20.7,N/A,Rain,Light Rain,300,2013-12-17 23:15:00
3:16 PM,35.6,32.0,87,29.98,5.0,WNW,11.5,20.7,N/A,Rain,Light Rain,300,2013-12-17 23:16:00
3:20 PM,35.6,32.0,87,29.98,4.0,WNW,4.6,20.7,N/A,Rain,Rain,300,2013-12-17 23:20:00
3:22 PM,35.6,32.0,87,29.97,4.0,West,5.8,20.7,N/A,Rain,Light Rain,280,2013-12-17 23:22:00
3:23 PM,35.6,32.0,87,29.97,3.0,West,4.6,20.7,N/A,Rain-Snow,Light Snow,280,2013-12-17 23:23:00
3:29 PM,35.6,33.8,93,29.97,4.0,WSW,6.9,-,N/A,Snow,Light Snow,250,2013-12-17 23:29:00
3:30 PM,35.6,33.8,93,29.97,3.0,West,8.1,-,N/A,Snow,Light Snow,260,2013-12-17 23:30:00
3:36 PM,35.6,33.8,93,29.97,4.0,NW,10.4,-,N/A,,Overcast,310,2013-12-17 23:36:00
3:38 PM,35.6,33.8,93,29.97,6.0,WNW,13.8,24.2,N/A,,Overcast,300,2013-12-17 23:38:00
3:42 PM,37.4,33.8,87,29.97,9.0,WNW,13.8,24.2,N/A,,Overcast,290,2013-12-17 23:42:00
3:43 PM,37.4,33.8,87,29.98,9.0,WNW,12.7,24.2,N/A,,Overcast,290,2013-12-17 23:43:00
3:47 PM,35.6,32.0,87,29.98,9.0,West,17.3,27.6,N/A,,Overcast,280,2013-12-17 23:47:00
3:50 PM,35.6,32.0,87,29.98,9.0,West,15.0,27.6,N/A,Rain,Light Rain,270,2013-12-17 23:50:00
3:58 PM,35.6,30.2,81,29.98,9.0,West,12.7,25.3,N/A,Rain,Rain,260,2013-12-17 23:58:00
4:00 PM,36,33,82,29.99,9,West,13.8,,,,Unknown Precipitation,260,2013-12-18 00:00:00
4:00 PM,35.6,32.0,87,29.99,9.0,WSW,12.7,25.3,N/A,Rain,Rain,250,2013-12-18 00:00:00
4:04 PM,35.6,32.0,87,29.98,9.0,West,13.8,24.2,N/A,,Mostly Cloudy,260,2013-12-18 00:04:00
4:06 PM,35.6,32.0,87,29.99,9.0,West,13.8,24.2,N/A,Rain,Light Rain,260,2013-12-18 00:06:00
4:07 PM,35.6,32.0,87,29.99,9.0,WSW,12.7,24.2,N/A,Rain,Light Rain,250,2013-12-18 00:07:00
4:24 PM,35.6,32.0,87,29.99,9.0,WSW,10.4,-,N/A,,Mostly Cloudy,250,2013-12-18 00:24:00
5:00 PM,35.6,33.8,93,30.00,9.0,West,15.0,32.2,N/A,Rain,Light Rain,260,2013-12-18 01:00:00
5:02 PM,35.6,32.0,87,30.01,9.0,West,11.5,32.2,N/A,Rain,Rain,270,2013-12-18 01:02:00
5:04 PM,35.6,32.0,87,30.00,5.0,West,6.9,32.2,N/A,Rain,Rain,270,2013-12-18 01:04:00
5:05 PM,35.6,32.0,87,30.00,5.0,West,3.5,32.2,N/A,,Mostly Cloudy,260,2013-12-18 01:05:00
5:11 PM,33.8,32.0,93,30.00,4.0,SSW,3.5,17.3,N/A,,Mostly Cloudy,210,2013-12-18 01:11:00
5:14 PM,33.8,32.0,93,30.00,6.0,Variable,2.3,-,N/A,,Overcast,0,2013-12-18 01:14:00
5:21 PM,33.8,32.0,93,30.00,9.0,Calm,Calm,-,N/A,,Mostly Cloudy,0,2013-12-18 01:21:00
5:53 PM,32.0,32.0,100,30.00,9.0,East,4.6,-,N/A,Rain,Light Rain,90,2013-12-18 01:53:00
6:00 PM,32.0,32.0,100,30.00,9.0,Variable,2.3,-,N/A,Rain,Light Rain,0,2013-12-18 02:00:00
6:08 PM,32.0,32.0,100,30.00,9.0,NE,6.9,-,N/A,Rain,Light Rain,40,2013-12-18 02:08:00
6:11 PM,33.8,33.8,100,30.00,9.0,Variable,2.3,-,N/A,,Mostly Cloudy,0,2013-12-18 02:11:00
6:25 PM,35.6,32.0,87,30.01,7.0,Variable,11.5,17.3,N/A,,Overcast,0,2013-12-18 02:25:00
6:30 PM,35.6,32.0,87,30.01,7.0,West,4.6,17.3,N/A,,Overcast,280,2013-12-18 02:30:00
6:31 PM,35.6,30.2,81,30.01,9.0,WNW,6.9,17.3,N/A,Rain,Light Rain,290,2013-12-18 02:31:00
6:37 PM,35.6,30.2,81,30.01,9.0,NW,5.8,-,N/A,Rain,Light Rain,310,2013-12-18 02:37:00
6:42 PM,35.6,30.2,81,30.01,9.0,North,4.6,-,N/A,,Mostly Cloudy,350,2013-12-18 02:42:00
7:00 PM,33.8,32.0,93,30.01,9.0,NNE,8.1,-,N/A,,Mostly Cloudy,30,2013-12-18 03:00:00
8:00 PM,33.8,32.0,93,30.03,9.0,East,9.2,-,N/A,,Overcast,80,2013-12-18 04:00:00
8:30 PM,33.8,32.0,93,30.04,9.0,East,6.9,-,N/A,Rain,Light Rain,80,2013-12-18 04:30:00
8:37 PM,33.8,32.0,93,30.04,5.0,East,6.9,-,N/A,Rain,Light Rain,80,2013-12-18 04:37:00
8:38 PM,33.8,32.0,93,30.04,4.0,East,6.9,-,N/A,Rain-Snow,Light Snow,80,2013-12-18 04:38:00
8:42 PM,33.8,33.8,100,30.04,3.0,ENE,4.6,-,N/A,Rain-Snow,Light Snow,70,2013-12-18 04:42:00
8:43 PM,33.8,33.8,100,30.04,3.0,East,5.8,-,N/A,Rain-Snow,Light Snow,80,2013-12-18 04:43:00
8:44 PM,33.8,33.8,100,30.04,3.0,East,6.9,-,N/A,Snow,Light Snow,90,2013-12-18 04:44:00
8:46 PM,33.8,32.0,93,30.04,3.0,East,5.8,-,N/A,Snow,Light Snow,80,2013-12-18 04:46:00
8:49 PM,33.8,32.0,93,30.04,3.0,ENE,8.1,-,N/A,,Overcast,70,2013-12-18 04:49:00
8:52 PM,33.8,32.0,93,30.04,4.0,ENE,5.8,-,N/A,,Overcast,70,2013-12-18 04:52:00
8:53 PM,33.8,32.0,93,30.04,5.0,ENE,5.8,-,N/A,,Overcast,70,2013-12-18 04:53:00
8:54 PM,33.8,32.0,93,30.04,7.0,East,5.8,-,N/A,Rain,Light Rain,80,2013-12-18 04:54:00
8:59 PM,33.8,32.0,93,30.04,9.0,East,8.1,-,N/A,Rain,Light Rain,90,2013-12-18 04:59:00
9:00 PM,33.8,32.0,93,30.04,9.0,East,6.9,-,N/A,Rain,Light Rain,90,2013-12-18 05:00:00
9:05 PM,33.8,32.0,93,30.04,9.0,East,8.1,-,N/A,,Mostly Cloudy,90,2013-12-18 05:05:00
10:00 PM,32,32,99,30.06,10,NE,2.3,,,,,40,2013-12-18 06:00:00
10:00 PM,32.0,32.0,100,30.06,9.0,NNE,3.5,-,N/A,,Partly Cloudy,30,2013-12-18 06:00:00
11:00 PM,33.8,32.0,93,30.09,9.0,West,4.6,-,N/A,,Overcast,280,2013-12-18 07:00:00
11:01 PM,33.8,32.0,93,30.09,9.0,West,5.8,-,N/A,Rain,Light Rain,270,2013-12-18 07:01:00
11:07 PM,35.6,30.2,81,30.09,5.0,West,5.8,-,N/A,Rain,Light Rain,270,2013-12-18 07:07:00
11:13 PM,35.6,30.2,81,30.09,5.0,WSW,3.5,-,N/A,,Mostly Cloudy,250,2013-12-18 07:13:00
11:15 PM,35.6,30.2,81,30.09,7.0,West,3.5,-,N/A,,Mostly Cloudy,260,2013-12-18 07:15:00
11:21 PM,35.6,30.2,81,30.09,9.0,Variable,2.3,-,N/A,,Scattered Clouds,0,2013-12-18 07:21:00